Regional Weather Roundup
Issued by NWS Charleston, SC

Current Version | Previous Version | Text Only | Print | Product List | Glossary Off
Versions: 1 2 3 4 5 6 7 8 9 10 11 12 13 14 15 16 17 18 19 20 21 22 23 24 25 26 27 28 29 30 31 32 33 34 35 36 37 38 39 40 41 42 43 44 45 46 47 48 49 50

000
ASUS42 KCHS 211042
RWRCHS

REGIONAL WEATHER ROUNDUP
NATIONAL WEATHER SERVICE CHARLESTON SC
600 AM EDT THU SEP 21 2017

NOTE: "FAIR" INDICATES FEW OR NO CLOUDS BELOW 12,000 FEET WITH NO
SIGNIFICANT WEATHER AND/OR OBSTRUCTIONS TO VISIBILITY.

NOT ALL STATIONS ARE QUALITY CONTROLLED. USE DATA WITH CAUTION...
ESPECIALLY DEWPOINT OBSERVATIONS.

SCZ027-030-031-034>040-042>050-211100-
...SOUTHEAST SOUTH CAROLINA...

CITY           SKY/WX    TMP DP  RH WIND       PRES   REMARKS
N CHARLESTON   PTCLDY    72  72 100 CALM      30.01R FOG
WATERFRONT PRK   N/A     76  75  96 VRB2      29.84R
JOHNS ISLAND   FAIR      73  72  94 CALM      30.01R FOG
PINOPOLIS        N/A     75  73  94 W6        29.93R
MONCKS CORNER  FAIR      70  68  94 CALM      30.01R FOG
SUMMERVILLE    FAIR      70  68  94 CALM      30.02R
BEAUFORT MCAS  CLEAR     74  74 100 CALM      30.01R FOG
BEAUFORT ARPT  FAIR      73  72  94 CALM      30.01R
HILTON HEAD IS NOT AVBL
WALTERBORO     SUNNY     68  68 100 CALM      30.02R FOG
ALLENDALE      NOT AVBL

...SOUTHERN MIDLANDS AND PEE DEE...

CITY           SKY/WX    TMP DP  RH WIND       PRES   REMARKS
GEORGETOWN     FAIR      70  70 100 CALM      30.02R FOG
KINGSTREE      FAIR      68  66  94 CALM      30.02R
ORANGEBURG     CLEAR     70  69  97 CALM      30.01S FOG
BARNWELL       FAIR      70  70 100 CALM      30.02R
AIKEN          FAIR      66  66 100 CALM      30.06R
MANNING        FAIR      70  70 100 CALM      30.02R
COLUMBIA       CLEAR     72  67  84 W3        30.01R
SUMTER         CLEAR     72  69  88 CALM      29.99R
FLORENCE       CLEAR     68  68 100 SW3       30.01R FOG
MYRTLE BEACH   CLEAR     73  72  96 W6        30.01R
N MYRTLE BEACH CLEAR     73  72  96 W3        30.00R

$$

GAZ063-065-086>088-099>101-113>116-118-119-134>141-150-211100-
...SOUTHEAST GEORGIA...

CITY           SKY/WX    TMP DP  RH WIND       PRES   REMARKS
SAVANNAH ARPT  PTCLDY    71  71 100 CALM      30.01R
HUNTER AAF     CLEAR     72  70  94 CALM      29.99R
FORT STEWART   CLEAR     70  68  94 CALM      29.98R
STATESBORO     CLEAR     69  69 100 CALM      30.02R
SYLVANIA       SUNNY     69  69 100 CALM      30.03R FOG
CLAXTON        FAIR      69  68  98 CALM      30.02R FOG

...CSRA...CENTRAL AND FAR SOUTHEAST GEORGIA...

CITY           SKY/WX    TMP DP  RH WIND       PRES   REMARKS
THOMSON        CLEAR     67  65  94 CALM      30.09R
AUGUSTA-BUSH   PTCLDY    69  68  96 CALM      30.01R FOG
AUGUSTA-DANIEL CLEAR     74  70  87 CALM      30.03R
SWAINSBORO     FAIR      70  70 100 CALM      30.03R
VIDALIA        CLEAR     72  70  94 CALM      30.02R
EASTMAN        FAIR      67  67  99 CALM      30.05R FOG
HAZLEHURST     FAIR      71  69  95 CALM      30.01R
ALMA           PTCLDY    69  68  96 CALM      30.00R FOG
WAYCROSS       PTCLDY    71  67  90 CALM      30.01R FOG
JESUP          NOT AVBL
BAXLEY         FAIR      68  68 100 CALM      30.01R
BRUNSWICK      FOG       72  70  94 CALM      30.01R VSB 1/2
SAINT SIMONS   PTCLDY    76  74  93 CALM      30.00R

$$

SCZ027-028-034-036>038-045-046-048>050-GAZ119-141-211100-
...LAKE AND SUPPLEMENTAL COASTAL OBSERVATIONS...

STATION/POSITION TIME  TEMP    WIND        PRES    WAVE   SWELL
                       AIR SEA DIR/SP/G            HT/PER HT/PER/DIR
                 (UTC) (F)     (DEG/KT/KT) (MB)    (FT/S) (FT/S/D)
WINYAH BAY       0930   74     260/  3     1016.0S
LAKE MURRAY      1020   72     290/  2/  3 1016.3
ACE BASIN NERRS  0945   73        CALM     1016.0S
FORT PULASKI     1000   77 79   CALM  /  1 1016.4
SAPELO ISLAND    1000   75        CALM     1016.0

$$

ANZ835-935-AMZ111-154-330-350-352-354-370-450-454-472-211100-
...C-MAN AND BUOY OBSERVATIONS...

STATION/POSITION TIME  TEMP    WIND        PRES    WAVE   SWELL
                       AIR SEA DIR/SP/G            HT/PER HT/PER/DIR
                 (UTC) (F)     (DEG/KT/KT) (MB)    (FT/S) (FT/S/D)
BUOY 41004       1010   79 80  280/  6/  8 1015.5
BUOY 41008       0950   80 80  210/  2/  2 1015.5R   3/11   3/100/11
FOLLY BEACH CMAN 1000   76     310/  2/  3 1016.7R
CAPERS NEARSHORE 1008   76 80  290/  8/ 10 1015.9R
FRIPP NEARSHORE  1008   79     240/  6/  8 1021.4R


STATION/POSITION TIME  TEMP    WIND        PRES    WAVE   SWELL
                       AIR SEA DIR/SP/G            HT/PER HT/PER/DIR
                 (UTC) (F)     (DEG/KT/KT) (MB)    (FT/S) (FT/S/D)
5E ST. MARYS GA  0900      82                N/A     2/12   2/110/12
FRYING PAN BUOY  1010   80 82  280/ 12/ 16 1015.8
BUOY 41025       0950   76 75  340/  2/  4 1014.9R   4/10   5/ 70/10
CAPE LOOKOUT NC  1000   76     310/  8/ 10 1015.1R
BUOY 41002       0950   78 79  360/  2/  2 1015.9R   7/11   7/ 60/11
BUOY 41010       1010      85   50/  6/  8 1015.2
ST AUGUSTINE FL  1000   76 82  280/  4/  5 1015.9R


$$




USA.gov is the U.S. government's official web portal to all federal, state and local government web resources and services.